SL-4 R/B, 61731

Orbit data source: Space-Track

SL-4 R/B, 61731 is space debris in SSO originally from a launch on Thu, 31 Oct 2024 UTC launched from the Plesetsk Missile And Space Complex (PKMTR). Debris objects in space refer to the collection of defunct objects orbiting the Earth. Examples of debris include non-operational satellites, rocket bodies, and fragments generated from explosions, collisions, or faulty payload assembly.

Loading next visibility...
SL-4 R/B details
Identifier
61731, 2024-197B
Orbit
SSO
Last TLE update6 hours ago
Origin
Flag of CISRVSN RF (CIS)
ManufacturerTsSKB-Progress
MissionSpacecraft
Bus & MotorBLOK-I, Unknown motor
Mass~0 kg wet, 2,350 kg dry
Launch date (UTC)
2024-10-31 (2 months ago)
Launch vehicleUnknown
Launch site
Plesetsk Missile And Space Complex (PKMTR)
Object type
Payload
Rocket body
Debris
Shape & HBRUnknown
Radar Cross SectionLarge (>1 m²)

Expand to show TLE details & history

TLE from 6 hours ago
0 SL-4 R/B
1 61731U 24197B   24361.27025836  .00084899  00000-0  81789-3 0  9994
2 61731  97.5613 272.8367 0090546 221.1341 138.3068 15.61075247  8694
Epoch: 2024-12-26T06:29Z
Definitive object data (Epoch: 2024-12-26T06:29:10.322Z)
Latitude0.00002°
Longitude80.29163°
Altitude433.669 km
Speed7.625 km/s
True Right ascension18h 11m 20s
True Declination0° 00' 00"
Sunlit
Object was in daylight at TLE epoch
Visualization TLE readout
Latitude8.60214°
Longitude79.42254°
Altitude438.925 km
Speed7.62 km/s
Apparent Right ascension20h 29m 55s
Apparent Declination-19° 56' 03"
Sunlit
Object is in daylight
Visualization observer readout
Local Sidereal Time12:02:11
Azimuth82.347° E
Elevation-40.695°
Doppler factor1
Orbital elements
Apogee altitude442.673 km
Perigee altitude320.262 km
Semi-major axis6,759.605 km
Eccentricity0.0090546
Inclination97.5613°
RAAN272.8367°
Arg. of periapsis221.1341°
True anomaly138.99114°
Mean anomaly138.3068°
Eccentric anomaly138.64955°
Mean motion3.90536 °/min
BSTAR0.00081789
Orbital period92.18 mins
Loading maneuver chart data...
Loading historical data...
Loading historical data...
Loading historical data...
Loading historical data...
Loading historical data...
Loading historical data...
Loading historical data...
Other satellites on launch #197 in the year 2024 (2024-10-31 UTC)

SL-4 R/B Visibility forecast

Observer location: undefined°, undefined

Span
Click to sort rows by Start time (UTC) header in descending order
Start Az.
Max El. time (UTC)
Max El. Az.
Max El.
End time (UTC)
End Az.
4 mins2024-12-26 18:56:38.001Z225.989° WSW2024-12-26 18:57:38.001Z256.509° W25.87°2024-12-26 19:00:38.001Z323.881° NNW
|